Weather History for Bentonville, AR

Change the Weather History Date:

Monday, November 26, 2012

  Actual Average Record
Temperature  
Mean Temperature 44 °F -  
Max Temperature 53 °F 55 °F 74 °F (1965)
Min Temperature 33 °F 35 °F 15 °F (1993)
Degree Days  
Heating Degree Days 21    
Moisture  
Dew Point 35 °F    
Average Humidity 69    
Maximum Humidity 87    
Minimum Humidity 49    
Precipitation  
Precipitation 0.00 in - - ()
Sea Level Pressure  
Sea Level Pressure 30.07 in    
Wind  
Wind Speed 7 mph (ENE)    
Max Wind Speed 17 mph    
Max Gust Speed 26 mph    
Visibility 9 miles    
Events      
Averages and records for this station are not official NWS values.
T = Trace of Precipitation, MM = Missing Value Source: NWS Daily Summary

Daily Weather History Graph

Daily Weather History Graph

Search for Another Location

Airport:

Trip Planner

Search our weather history database for the weather conditions in past years. The results will help you decide how hot, cold, wet, or windy it might be!

Date:

Astronomy

Nov. 26, 2012 Rise Set
Actual Time 7:05 AM CST 5:02 PM CST
Civil Twilight 6:37 AM CST 5:31 PM CST
Nautical Twilight 6:05 AM CST 6:02 PM CST
Astronomical Twilight 5:34 AM CST 6:33 PM CST
Moon 3:54 PM CST (11/26) 5:18 AM CST (11/26)
Length of Visible Light 10h 53m
Length of Day
9h 57m
Waxing Gibbous, 97% of the Moon is Illuminated
Nov 26
Waxing Gibbous
Nov 28
Full
Dec 6
Last Quarter
Dec 13
New
Dec 19
First Quarter

Hourly Weather History & Observations

Time (CST) Temp. Windchill Dew Point Humidity Pressure Visibility Wind Dir Wind Speed Gust Speed Precip Events Conditions
12:15 AM 44.6 °F 43.1 °F 33.8 °F 66% 29.93 in 10.0 mi ESE 3.5 mph - N/A   Clear
12:35 AM 42.8 °F 41.1 °F 33.8 °F 70% 29.93 in 10.0 mi ESE 3.5 mph - N/A   Clear
1:15 AM 44.6 °F 42.2 °F 35.6 °F 71% 29.92 in 10.0 mi ESE 4.6 mph - N/A   Scattered Clouds
1:35 AM 46.4 °F 44.3 °F 35.6 °F 66% 29.92 in 10.0 mi ESE 4.6 mph - N/A   Mostly Cloudy
1:55 AM 46.4 °F 45.2 °F 37.4 °F 71% 29.92 in 10.0 mi ESE 3.5 mph - N/A   Mostly Cloudy
2:16 AM 46.4 °F 44.3 °F 35.6 °F 66% 29.92 in 10.0 mi ESE 4.6 mph - N/A   Scattered Clouds
2:35 AM 44.6 °F 43.1 °F 35.6 °F 71% 29.92 in 10.0 mi ESE 3.5 mph - N/A   Clear
2:55 AM 46.4 °F 45.2 °F 37.4 °F 71% 29.92 in 10.0 mi East 3.5 mph - N/A   Mostly Cloudy
3:15 AM 46.4 °F 45.2 °F 35.6 °F 66% 29.92 in 10.0 mi East 3.5 mph - N/A   Partly Cloudy
3:35 AM 44.6 °F 42.2 °F 37.4 °F 76% 29.92 in 10.0 mi East 4.6 mph - N/A   Clear
3:55 AM 46.4 °F 44.3 °F 37.4 °F 71% 29.91 in 10.0 mi East 4.6 mph - N/A   Clear
4:15 AM 46.4 °F 44.3 °F 37.4 °F 71% 29.91 in 10.0 mi East 4.6 mph - N/A   Clear
4:55 AM 46.4 °F 43.5 °F 39.2 °F 76% 29.91 in 10.0 mi East 5.8 mph - N/A   Mostly Cloudy
5:15 AM 48.2 °F - 39.2 °F 71% 29.92 in 10.0 mi East 5.8 mph - N/A   Overcast
5:36 AM 48.2 °F - 41.0 °F 76% 29.93 in 10.0 mi East 5.8 mph - N/A   Overcast
5:55 AM 48.2 °F - 39.2 °F 71% 29.93 in 10.0 mi East 5.8 mph - N/A   Overcast
6:15 AM 50.0 °F - 41.0 °F 71% 29.94 in 10.0 mi East 4.6 mph - N/A   Overcast
6:55 AM 50.0 °F - 41.0 °F 71% 29.95 in 10.0 mi East 3.5 mph - N/A   Overcast
7:15 AM 50.0 °F - 41.0 °F 71% 29.95 in 10.0 mi East 4.6 mph - N/A   Overcast
7:55 AM 51.8 °F - 41.0 °F 67% 29.96 in 10.0 mi East 4.6 mph - N/A   Overcast
8:15 AM 51.8 °F - 42.8 °F 71% 29.97 in 10.0 mi East 4.6 mph - N/A   Overcast
8:35 AM 51.8 °F - 42.8 °F 71% 29.97 in 10.0 mi East 4.6 mph - N/A   Overcast
8:55 AM 53.6 °F - 42.8 °F 67% 29.98 in 10.0 mi East 4.6 mph - N/A   Overcast
9:15 AM 53.6 °F - 42.8 °F 67% 29.98 in 10.0 mi ENE 3.5 mph - N/A   Overcast
9:35 AM 53.6 °F - 42.8 °F 67% 29.99 in 10.0 mi East 5.8 mph - N/A   Overcast
10:15 AM 53.6 °F - 42.8 °F 67% 30.01 in 10.0 mi NE 3.5 mph - N/A   Overcast
10:35 AM 53.6 °F - 42.8 °F 67% 30.02 in 10.0 mi NNE 5.8 mph - N/A   Overcast
10:55 AM 51.8 °F - 42.8 °F 71% 30.02 in 10.0 mi NNE 8.1 mph - N/A   Overcast
11:16 AM 50.0 °F - 42.8 °F 76% 30.02 in 10.0 mi NNE 10.4 mph - N/A   Overcast
11:35 AM 48.2 °F - 42.8 °F 82% 30.02 in 8.0 mi NE 9.2 mph - N/A   Overcast
11:55 AM 48.2 °F - 41.0 °F 76% 30.02 in 9.0 mi NNE 6.9 mph - N/A   Overcast
12:35 PM 46.4 °F 40.4 °F 41.0 °F 81% 30.02 in 7.0 mi NNE 13.8 mph - N/A   Overcast
1:15 PM 44.6 °F 37.8 °F 39.2 °F 81% 30.03 in 4.0 mi NNE 15.0 mph - N/A   Overcast
1:35 PM 44.6 °F 38.1 °F 39.2 °F 81% 30.03 in 3.0 mi North 13.8 mph - N/A   Overcast
1:55 PM 42.8 °F 35.8 °F 39.2 °F 87% 30.04 in 2.5 mi NNE 13.8 mph 18.4 mph N/A   Overcast
2:15 PM 41.0 °F 33.5 °F 37.4 °F 87% 30.05 in 3.0 mi NNE 13.8 mph - N/A   Overcast
2:35 PM 41.0 °F 33.5 °F 37.4 °F 87% 30.06 in 2.5 mi NNE 13.8 mph 21.9 mph N/A   Overcast
2:55 PM 39.2 °F 31.2 °F 35.6 °F 87% 30.07 in 3.0 mi North 13.8 mph 20.7 mph N/A   Overcast
3:15 PM 41.0 °F 33.1 °F 35.6 °F 81% 30.09 in 10.0 mi NNE 15.0 mph 20.7 mph N/A   Overcast
3:35 PM 41.0 °F 33.9 °F 35.6 °F 81% 30.10 in 10.0 mi NNE 12.7 mph 23.0 mph N/A   Overcast
3:55 PM 41.0 °F 33.5 °F 33.8 °F 76% 30.12 in 10.0 mi NNE 13.8 mph 21.9 mph N/A   Overcast
4:35 PM 42.8 °F 35.4 °F 32.0 °F 66% 30.16 in 10.0 mi NE 15.0 mph 23.0 mph N/A   Overcast
4:55 PM 42.8 °F 35.8 °F 30.2 °F 61% 30.17 in 10.0 mi NE 13.8 mph 26.5 mph N/A   Overcast
5:15 PM 42.8 °F 35.1 °F 30.2 °F 61% 30.18 in 10.0 mi NE 16.1 mph 26.5 mph N/A   Overcast
5:35 PM 41.0 °F 33.1 °F 32.0 °F 70% 30.20 in 10.0 mi NE 15.0 mph 20.7 mph N/A   Overcast
5:55 PM 42.8 °F 35.4 °F 28.4 °F 57% 30.21 in 10.0 mi NE 15.0 mph 25.3 mph N/A   Overcast
6:15 PM 42.8 °F 34.8 °F 26.6 °F 53% 30.22 in 10.0 mi NE 17.3 mph 26.5 mph N/A   Overcast
7:15 PM 42.8 °F 36.6 °F 24.8 °F 49% 30.24 in 10.0 mi NE 11.5 mph 21.9 mph N/A   Overcast
7:55 PM 41.0 °F 33.1 °F 24.8 °F 53% 30.27 in 10.0 mi NE 15.0 mph 20.7 mph N/A   Partly Cloudy
8:15 PM 39.2 °F 30.8 °F 26.6 °F 61% 30.27 in 10.0 mi NE 15.0 mph 19.6 mph N/A   Clear
8:35 PM 39.2 °F 32.0 °F 24.8 °F 56% 30.28 in 10.0 mi NE 11.5 mph 18.4 mph N/A   Clear
8:56 PM 39.2 °F 32.5 °F 24.8 °F 56% 30.29 in 10.0 mi NNE 10.4 mph 16.1 mph N/A   Clear
9:15 PM 39.2 °F 31.6 °F 24.8 °F 56% 30.29 in 10.0 mi NE 12.7 mph - N/A   Clear
9:35 PM 37.4 °F 30.8 °F 24.8 °F 60% 30.30 in 10.0 mi NNE 9.2 mph 16.1 mph N/A   Clear
9:56 PM 37.4 °F 29.3 °F 24.8 °F 60% 30.31 in 10.0 mi NNE 12.7 mph - N/A   Clear
10:15 PM 37.4 °F 30.8 °F 24.8 °F 60% 30.31 in 10.0 mi NNE 9.2 mph - N/A   Clear
10:35 PM 37.4 °F 30.3 °F 24.8 °F 60% 30.32 in 10.0 mi NNE 10.4 mph - N/A   Clear
11:15 PM 35.6 °F 28.6 °F 24.8 °F 65% 30.33 in 10.0 mi North 9.2 mph - N/A   Clear
11:35 PM 35.6 °F 26.6 °F 24.8 °F 65% 30.33 in 10.0 mi North 13.8 mph - N/A   Clear
11:55 PM 33.8 °F 25.3 °F 24.8 °F 70% 30.33 in 10.0 mi NNE 11.5 mph - N/A   Clear